This demonstration page uses our WeatherBlox Daily Observations layout. Learn more.

Left ArrowRight Arrow

Hourly Observations for July 7, 2017

Temp ( °F °C ) Dew Point ( °F °C ) Humidity (%) Winds ( mph kmh ) Pressure ( in mb ) Visibility ( mi km ) Precip ( " mm )
12:53 am 00:53 Clear 76 24.4 63 17.2 64 64 ENE 5 7 30.00 1016 10 16 0.00 0.00
1:53 am 01:53 Clear 74 23.3 64 17.8 71 71 N 3 6 30.01 1016 10 16 0.00 0.00
2:53 am 02:53 Clear 74 23.3 66 18.9 76 76 NW 5 7 30.03 1017 10 16 0.00 0.00
3:53 am 03:53 Clear 72 22.2 66 18.9 82 82 NW 5 7 30.05 1018 10 16 0.00 0.00
4:53 am 04:53 Clear 71 21.7 65 18.3 81 81 W 6 9 30.07 1018 10 16 0.00 0.00
5:53 am 05:53 Clear 70 21.1 65 18.3 84 84 NNW 5 7 30.09 1019 10 16 0.00 0.00
6:53 am 06:53 Sunny 70 21.1 65 18.3 84 84 N 12 19 30.07 1018 10 16 0.00 0.00
7:53 am 07:53 Sunny 71 21.7 61 16.1 71 71 NE 18 30 30.10 1019 10 16 0.00 0.00
8:53 am 08:53 Sunny 73 22.8 57 13.9 57 57 NE 17 28 30.10 1019 10 16 0.00 0.00
9:53 am 09:53 Sunny 76 24.4 57 13.9 52 52 NE 15 24 30.14 1021 10 16 0.00 0.00
10:53 am 10:53 Mostly Sunny 77 25 56 13.3 48 48 NNE 14 22 30.17 1022 10 16 0.00 0.00
11:53 am 11:53 Mostly Sunny 75 23.9 56 13.3 52 52 E 9 15 30.15 1021 10 16 0.00 0.00
12:13 pm 12:13 Mostly Cloudy with Nearby Thunderstorms 74 23.3 58 14.4 57 57 NNE 6 9 30.15 1021 10 16 0.00 0.03
12:53 pm 12:53 Sunny 77 25 56 13.3 48 48 ENE 9 15 30.17 1022 10 16 0.00 0.03
1:53 pm 13:53 Mostly Sunny 75 23.9 55 12.8 50 50 E 8 13 30.16 1021 10 16 0.00 0.00
2:53 pm 14:53 Mostly Sunny 74 23.3 56 13.3 54 54 ESE 5 7 30.16 1021 10 16 0.00 0.00
3:53 pm 15:53 Sunny 78 25.6 57 13.9 48 48 NE 5 7 30.15 1021 10 16 0.00 0.00
4:53 pm 16:53 Sunny 80 26.7 57 13.9 45 45 VRB 3 6 30.14 1021 10 16 0.00 0.00
5:53 pm 17:53 Sunny 80 26.7 55 12.8 42 42 NE 7 11 30.12 1020 10 16 0.00 0.00
6:53 pm 18:53 Sunny 80 26.7 56 13.3 44 44 NE 6 9 30.10 1019 10 16 0.00 0.00
7:53 pm 19:53 Sunny 78 25.6 56 13.3 47 47 NE 5 7 30.10 1019 10 16 0.00 0.00
8:53 pm 20:53 Sunny 75 23.9 59 15 58 58 Calm 30.09 1019 8 13 0.00 0.00
9:53 pm 21:53 Clear 70 21.1 61 16.1 73 73 Calm 30.11 1020 10 16 0.00 0.00
10:53 pm 22:53 Clear 67 19.4 59 15 76 76 Calm 30.11 1020 10 16 0.00 0.00
11:53 pm 23:53 Clear 65 18.3 58 14.4 78 78 Calm 30.11 1020 10 16 0.00 0.00

Powered by AerisWeather